Meteo pe oră la Lewis

Astăzi, 30 Septembrie, Miercuri

Timp Temperatura Precipitaţii Vânt Presiune Umiditate
00:00 +8°C° 0 mm 9 m/s 740 mmHg 77%
01:00 +8°C° 0.4 mm 10 m/s 739 mmHg 80%
02:00 +8°C° 0.4 mm 10 m/s 738 mmHg 83%
03:00 +8°C° 0.4 mm 11 m/s 737 mmHg 86%
04:00 +8°C° 0.7 mm 11 m/s 736 mmHg 87%
05:00 +9°C° 0.7 mm 11 m/s 735 mmHg 89%
06:00 +9°C° 0.7 mm 11 m/s 735 mmHg 91%
07:00 +10°C° 0.5 mm 9 m/s 735 mmHg 90%
08:00 +10°C° 0.5 mm 8 m/s 735 mmHg 89%
09:00 +10°C° 0.5 mm 6 m/s 736 mmHg 88%
10:00 +10°C° 0.3 mm 5 m/s 736 mmHg 87%
11:00 +10°C° 0.3 mm 5 m/s 736 mmHg 86%
12:00 +11°C° 0.3 mm 4 m/s 737 mmHg 84%
13:00 +9°C° 0.3 mm 5 m/s 737 mmHg 83%
14:00 +9°C° 0.3 mm 6 m/s 737 mmHg 82%
15:00 +9°C° 0.3 mm 6 m/s 737 mmHg 81%
16:00 +8°C° 0.1 mm 6 m/s 737 mmHg 80%
17:00 +8°C° 0.1 mm 6 m/s 737 mmHg 79%
18:00 +8°C° 0.1 mm 6 m/s 737 mmHg 78%
19:00 +7°C° 0 mm 5 m/s 737 mmHg 79%
20:00 +7°C° 0 mm 5 m/s 738 mmHg 80%
21:00 +7°C° 0 mm 5 m/s 738 mmHg 80%
22:00 +6°C° 0 mm 5 m/s 738 mmHg 80%
23:00 +6°C° 0 mm 5 m/s 737 mmHg 79%

Mâine, 1 Octombrie, Joi

Timp Temperatura Precipitaţii Vânt Presiune Umiditate
00:00 +6°C° 0 mm 5 m/s 737 mmHg 78%
01:00 +6°C° 0 mm 4 m/s 737 mmHg 78%
02:00 +6°C° 0 mm 4 m/s 737 mmHg 77%
03:00 +6°C° 0 mm 4 m/s 737 mmHg 77%
04:00 +6°C° 0 mm 4 m/s 736 mmHg 77%
05:00 +6°C° 0 mm 4 m/s 736 mmHg 78%
06:00 +6°C° 0 mm 4 m/s 736 mmHg 78%
07:00 +6°C° 0.3 mm 5 m/s 736 mmHg 79%
08:00 +6°C° 0.3 mm 5 m/s 736 mmHg 80%
09:00 +7°C° 0.3 mm 6 m/s 736 mmHg 81%
10:00 +7°C° 0.2 mm 6 m/s 736 mmHg 79%
11:00 +7°C° 0.2 mm 6 m/s 736 mmHg 77%
12:00 +8°C° 0.2 mm 6 m/s 737 mmHg 76%
13:00 +7°C° 0.2 mm 6 m/s 737 mmHg 77%
14:00 +7°C° 0.2 mm 6 m/s 737 mmHg 78%
15:00 +7°C° 0.2 mm 6 m/s 737 mmHg 78%
16:00 +7°C° 0.1 mm 6 m/s 737 mmHg 80%
17:00 +6°C° 0.1 mm 7 m/s 737 mmHg 82%
18:00 +6°C° 0.1 mm 7 m/s 737 mmHg 84%
19:00 +6°C° 0.1 mm 7 m/s 737 mmHg 85%
20:00 +6°C° 0.1 mm 7 m/s 737 mmHg 86%
21:00 +6°C° 0.1 mm 8 m/s 737 mmHg 88%
22:00 +7°C° 0.4 mm 8 m/s 737 mmHg 89%
23:00 +7°C° 0.4 mm 8 m/s 736 mmHg 90%

Poimâine, 2 Octombrie, Vineri

Timp Temperatura Precipitaţii Vânt Presiune Umiditate
00:00 +7°C° 0.4 mm 8 m/s 736 mmHg 92%
01:00 +8°C° 0.3 mm 7 m/s 736 mmHg 92%
02:00 +8°C° 0.3 mm 5 m/s 736 mmHg 92%
03:00 +8°C° 0.3 mm 4 m/s 736 mmHg 91%
04:00 +7°C° 0 mm 5 m/s 737 mmHg 90%
05:00 +7°C° 0 mm 5 m/s 737 mmHg 90%
06:00 +7°C° 0 mm 6 m/s 738 mmHg 89%
07:00 +7°C° 0 mm 6 m/s 738 mmHg 86%
08:00 +8°C° 0 mm 7 m/s 739 mmHg 82%
09:00 +8°C° 0 mm 7 m/s 739 mmHg 79%
10:00 +8°C° 0.1 mm 7 m/s 740 mmHg 81%
11:00 +7°C° 0.1 mm 8 m/s 741 mmHg 82%
12:00 +9°C° 0.1 mm 8 m/s 741 mmHg 84%
13:00 +9°C° 0 mm 7 m/s 741 mmHg 80%
14:00 +10°C° 0 mm 7 m/s 742 mmHg 77%
15:00 +10°C° 0 mm 6 m/s 742 mmHg 73%
16:00 +9°C° 0 mm 6 m/s 742 mmHg 74%
17:00 +8°C° 0 mm 5 m/s 743 mmHg 75%
18:00 +7°C° 0 mm 5 m/s 743 mmHg 77%
19:00 +7°C° 0 mm 5 m/s 743 mmHg 78%
20:00 +7°C° 0 mm 5 m/s 743 mmHg 80%
21:00 +7°C° 0 mm 5 m/s 744 mmHg 81%
22:00 +7°C° 0 mm 5 m/s 744 mmHg 84%
23:00 +7°C° 0 mm 4 m/s 744 mmHg 87%

3 Octombrie, Sâmbătă

Timp Temperatura Precipitaţii Vânt Presiune Umiditate
00:00 +7°C° 0 mm 4 m/s 744 mmHg 91%
01:00 +8°C° 0 mm 3 m/s 744 mmHg 91%
02:00 +7°C° 0 mm 3 m/s 743 mmHg 91%
03:00 +7°C° 0 mm 2 m/s 743 mmHg 92%
04:00 +7°C° 0 mm 2 m/s 743 mmHg 91%
05:00 +8°C° 0 mm 1 m/s 743 mmHg 91%
06:00 +8°C° 0 mm 1 m/s 743 mmHg 91%
07:00 +8°C° 0 mm 2 m/s 742 mmHg 89%
08:00 +8°C° 0 mm 2 m/s 742 mmHg 87%
09:00 +9°C° 0 mm 3 m/s 741 mmHg 85%
10:00 +8°C° 0.6 mm 4 m/s 741 mmHg 87%
11:00 +8°C° 0.6 mm 5 m/s 741 mmHg 89%
12:00 +8°C° 0.6 mm 5 m/s 740 mmHg 92%
13:00 +8°C° 1.7 mm 5 m/s 740 mmHg 92%
14:00 +7°C° 1.7 mm 5 m/s 739 mmHg 93%
15:00 +7°C° 1.7 mm 4 m/s 739 mmHg 94%
16:00 +7°C° 0.9 mm 6 m/s 739 mmHg 93%
17:00 +8°C° 0.9 mm 7 m/s 738 mmHg 92%
18:00 +7°C° 0.9 mm 8 m/s 738 mmHg 91%
19:00 +7°C° 0.9 mm 8 m/s 738 mmHg 93%
20:00 +8°C° 0.9 mm 7 m/s 738 mmHg 95%
21:00 +9°C° 0.9 mm 7 m/s 738 mmHg 97%
22:00 +9°C° 1.7 mm 7 m/s 737 mmHg 97%
23:00 +10°C° 1.7 mm 7 m/s 737 mmHg 96%

4 Octombrie, Duminică

Timp Temperatura Precipitaţii Vânt Presiune Umiditate
00:00 +10°C° 1.7 mm 7 m/s 736 mmHg 96%
01:00 +10°C° 2.1 mm 8 m/s 736 mmHg 96%
02:00 +11°C° 2.1 mm 8 m/s 735 mmHg 95%
03:00 +11°C° 2.1 mm 9 m/s 734 mmHg 94%
04:00 +11°C° 0.6 mm 9 m/s 735 mmHg 93%
05:00 +11°C° 0.6 mm 9 m/s 735 mmHg 93%
06:00 +11°C° 0.6 mm 9 m/s 735 mmHg 92%
07:00 +11°C° 0.2 mm 9 m/s 735 mmHg 91%
08:00 +12°C° 0.2 mm 9 m/s 735 mmHg 91%
09:00 +12°C° 0.2 mm 9 m/s 735 mmHg 90%
10:00 +12°C° 0 mm 10 m/s 736 mmHg 88%
11:00 +12°C° 0 mm 10 m/s 736 mmHg 87%
12:00 +12°C° 0 mm 10 m/s 736 mmHg 85%
13:00 +12°C° 0 mm 10 m/s 736 mmHg 85%
14:00 +12°C° 0 mm 10 m/s 736 mmHg 84%
15:00 +11°C° 0 mm 10 m/s 736 mmHg 84%
16:00 +11°C° 0 mm 9 m/s 736 mmHg 83%
17:00 +11°C° 0 mm 9 m/s 736 mmHg 81%
18:00 +11°C° 0 mm 9 m/s 736 mmHg 80%
19:00 +11°C° 0 mm 9 m/s 736 mmHg 80%
20:00 +11°C° 0 mm 10 m/s 736 mmHg 80%
21:00 +11°C° 0 mm 10 m/s 736 mmHg 80%
22:00 +11°C° 0 mm 10 m/s 737 mmHg 83%
23:00 +11°C° 0 mm 9 m/s 737 mmHg 86%

5 Octombrie, Luni

Timp Temperatura Precipitaţii Vânt Presiune Umiditate
00:00 +11°C° 0 mm 8 m/s 737 mmHg 88%
01:00 +10°C° 0 mm 7 m/s 738 mmHg 89%
02:00 +10°C° 0 mm 6 m/s 738 mmHg 91%
03:00 +9°C° 0 mm 5 m/s 738 mmHg 92%
04:00 +9°C° 0 mm 5 m/s 738 mmHg 93%
05:00 +9°C° 0 mm 5 m/s 739 mmHg 93%
06:00 +9°C° 0 mm 5 m/s 739 mmHg 93%
07:00 +9°C° 0 mm 5 m/s 739 mmHg 92%
08:00 +10°C° 0 mm 5 m/s 740 mmHg 90%
09:00 +12°C° 0 mm 5 m/s 740 mmHg 88%
10:00 +12°C° 0 mm 5 m/s 740 mmHg 84%
11:00 +13°C° 0 mm 5 m/s 740 mmHg 80%
12:00 +14°C° 0 mm 4 m/s 740 mmHg 76%
13:00 +14°C° 0 mm 4 m/s 740 mmHg 75%
14:00 +14°C° 0 mm 4 m/s 741 mmHg 74%
15:00 +14°C° 0 mm 4 m/s 741 mmHg 73%
16:00 +13°C° 0 mm 4 m/s 741 mmHg 78%
17:00 +12°C° 0 mm 4 m/s 741 mmHg 82%
18:00 +11°C° 0 mm 3 m/s 742 mmHg 86%
19:00 +11°C° 0 mm 3 m/s 742 mmHg 88%
20:00 +11°C° 0 mm 3 m/s 742 mmHg 89%
21:00 +10°C° 0 mm 3 m/s 743 mmHg 90%
22:00 +10°C° 0 mm 3 m/s 743 mmHg 91%
23:00 +10°C° 0 mm 3 m/s 743 mmHg 91%
Arată mai mult

We Need Your Consent

Meteoprog and our Service Providers may store and access personal data such as cookies, device identifiers or other similar technologies on your device and process such data to personalise content and ads, as well as provide social media features and to analyse the traffic.

  • Store and/or access information on your device

    Cookies, device identifiers or other information can be stored or accessed on your device for the purposes indicated above.

  • Personalised ads and content, ad and content measurement, audience insights, and products development

    Ads and content can be personalised based on a profile. More data can be added to better personalise ads and content. Ad and content performance can be measured. Insights about the audience who saw the ads and content can be derived. Such data can be used to develop or improve user’s experience, systems and software.

By clicking ‘I Agree’ you will allow the use of indicated cookies, device identifiers, web beacons or other similar technologies. Your settings can be changed in the browser on your device.

For certain purposes, legitimate interests may be relied on, rather than consent. You can read more about this in our Privacy and Cookie Policy.